Tracking 22989 objects as of 8-May-2021
HD Live streaming from Space Station
objects crossing your sky now

THORAD AGENA D DEB

Track THORAD AGENA D DEB now!
10-day predictions


NORAD ID: 42508
Int'l Code: 1970-025RN
Perigee: 846.7 km
Apogee: 1,026.8 km
Inclination: 99.8 °
Period: 103.6 minutes
Semi major axis: 7307 km
RCS: Unknown
Launch date: April 8, 1970
Source: United States (US)
Launch site: AIR FORCE WESTERN TEST RANGE (AFWTR)

Note: This is SATELLITE DEBRIS
aabbcc
Your satellite tracking list
Your tracking list is empty




NASA's NSSDC Master Catalog

Two Line Element Set (TLE):
1 42508U 70025RN  21127.50218097  .00000447  00000-0  38065-3 0  9998
2 42508  99.7617 226.8679 0123264 246.1461 112.6737 13.89720927916980
Source of the keplerian elements: AFSPC